WMT5ZU LIRF-LATI

Flight info

Callsign WMT5ZU
Flight time N/A
Altitude 36000
Route OKUNO DCT ATRUP DCT XOLTA/N0446F350 DCT TIBRI DCT PETAK
Aircraft A321/M-SDE3FGHIRWY/LB1

Departure

Time 2026-05-07 17:28
Airport Rome–Fiumicino Leonardo da Vinci International Airport (LIRF)

Arrival

Time N/A
Airport Tirana International Airport Mother Teresa (LATI)
Time Latitude Longitude Altitude Speed Heading
2026-05-07 17:12 41.79380 12.24552 14 ft 0 kts 346°
2026-05-07 17:16 41.79359 12.24559 14 ft 3 kts 346°
2026-05-07 17:16 41.79339 12.24567 14 ft 4 kts 331°
2026-05-07 17:16 41.79320 12.24589 14 ft 4 kts 292°
2026-05-07 17:16 41.79316 12.24615 15 ft 1 kts 258°
2026-05-07 17:19 41.79313 12.24593 15 ft 6 kts 258°
2026-05-07 17:20 41.79300 12.24509 14 ft 12 kts 258°
2026-05-07 17:20 41.79307 12.24429 14 ft 9 kts 298°
2026-05-07 17:20 41.79347 12.24346 15 ft 12 kts 304°
2026-05-07 17:20 41.79392 12.24247 14 ft 12 kts 285°
2026-05-07 17:21 41.79371 12.24135 14 ft 13 kts 249°
2026-05-07 17:21 41.79379 12.24024 14 ft 14 kts 326°
2026-05-07 17:21 41.79474 12.23974 14 ft 15 kts 339°
2026-05-07 17:21 41.79580 12.23921 14 ft 17 kts 340°
2026-05-07 17:22 41.79681 12.23882 14 ft 14 kts
2026-05-07 17:22 41.79731 12.23986 14 ft 15 kts 70°
2026-05-07 17:22 41.79771 12.24134 15 ft 19 kts 70°
2026-05-07 17:22 41.79814 12.24272 14 ft 11 kts 48°
2026-05-07 17:23 41.79890 12.24268 16 ft 13 kts 340°
2026-05-07 17:23 41.79989 12.24222 14 ft 15 kts 351°
2026-05-07 17:23 41.80053 12.24313 13 ft 17 kts 69°
2026-05-07 17:23 41.80104 12.24498 13 ft 25 kts 70°
2026-05-07 17:24 41.80172 12.24745 15 ft 28 kts 69°
2026-05-07 17:24 41.80207 12.24956 14 ft 21 kts 92°
2026-05-07 17:24 41.80227 12.25145 14 ft 21 kts 70°
2026-05-07 17:24 41.80278 12.25332 16 ft 21 kts 69°
2026-05-07 17:25 41.80330 12.25518 16 ft 22 kts 70°
2026-05-07 17:25 41.80388 12.25729 15 ft 26 kts 70°
2026-05-07 17:25 41.80454 12.25965 15 ft 28 kts 70°
2026-05-07 17:25 41.80521 12.26214 16 ft 28 kts 70°
2026-05-07 17:26 41.80590 12.26462 17 ft 29 kts 70°
2026-05-07 17:26 41.80656 12.26702 15 ft 26 kts 69°
2026-05-07 17:26 41.80716 12.26920 13 ft 24 kts 70°
2026-05-07 17:26 41.80780 12.27045 13 ft 14 kts 10°
2026-05-07 17:27 41.80875 12.27008 13 ft 15 kts 340°
2026-05-07 17:27 41.80955 12.26968 14 ft 8 kts 332°
2026-05-07 17:27 41.80949 12.26896 13 ft 12 kts 250°
2026-05-07 17:27 41.80895 12.26698 14 ft 47 kts 249°
2026-05-07 17:28 41.80698 12.25983 19 ft 115 kts 249°
2026-05-07 17:28 41.80358 12.24746 58 ft 161 kts 251°
2026-05-07 17:28 41.79989 12.23372 763 ft 156 kts 251°
2026-05-07 17:28 41.79597 12.21993 1402 ft 161 kts 246°
2026-05-07 17:29 41.79037 12.20717 2000 ft 160 kts 221°
2026-05-07 17:29 41.78200 12.19759 2518 ft 160 kts 217°
2026-05-07 17:29 41.77339 12.18808 3076 ft 161 kts 217°
2026-05-07 17:29 41.76435 12.17814 3391 ft 178 kts 217°
2026-05-07 17:30 41.75427 12.16710 3636 ft 197 kts 215°
2026-05-07 17:30 41.74256 12.15599 3838 ft 217 kts 214°
2026-05-07 17:30 41.72934 12.14381 3996 ft 245 kts 213°
2026-05-07 17:30 41.71475 12.13044 4472 ft 259 kts 213°
2026-05-07 17:31 41.69975 12.11669 5195 ft 263 kts 213°
2026-05-07 17:31 41.68457 12.10277 5975 ft 265 kts 213°
2026-05-07 17:31 41.66930 12.08878 6706 ft 267 kts 214°
2026-05-07 17:31 41.65391 12.07463 7422 ft 270 kts 214°
2026-05-07 17:32 41.63839 12.06031 8147 ft 272 kts 214°
2026-05-07 17:32 41.62295 12.04603 8855 ft 275 kts 214°
2026-05-07 17:32 41.60584 12.03464 9555 ft 279 kts 192°
2026-05-07 17:32 41.58647 12.03526 10187 ft 284 kts 165°
2026-05-07 17:33 41.56911 12.04806 10824 ft 291 kts 138°
2026-05-07 17:33 41.55775 12.07058 11444 ft 299 kts 110°
2026-05-07 17:33 41.55536 12.09836 11989 ft 311 kts 88°
2026-05-07 17:33 41.55732 12.12813 12130 ft 333 kts 85°
2026-05-07 17:34 41.55998 12.15984 12268 ft 354 kts 85°
2026-05-07 17:34 41.56303 12.19339 12455 ft 372 kts 84°
2026-05-07 17:34 41.56623 12.22801 12963 ft 379 kts 84°
2026-05-07 17:34 41.57111 12.26271 13570 ft 384 kts 75°
2026-05-07 17:35 41.58112 12.29599 14131 ft 389 kts 63°
2026-05-07 17:35 41.59610 12.32634 14661 ft 395 kts 50°
2026-05-07 17:35 41.61555 12.35248 15173 ft 400 kts 42°
2026-05-07 17:35 41.63630 12.37755 15699 ft 404 kts 42°
2026-05-07 17:36 41.65721 12.40311 16214 ft 409 kts 42°
2026-05-07 17:36 41.67823 12.42920 16730 ft 415 kts 43°
2026-05-07 17:36 41.69939 12.45569 17249 ft 419 kts 43°
2026-05-07 17:36 41.72078 12.48257 17761 ft 424 kts 43°
2026-05-07 17:37 41.74241 12.50975 18271 ft 429 kts 43°
2026-05-07 17:37 41.76427 12.53723 18730 ft 433 kts 42°
2026-05-07 17:37 41.78633 12.56495 19223 ft 436 kts 42°
2026-05-07 17:37 41.80913 12.59190 19693 ft 438 kts 36°
2026-05-07 17:38 41.83370 12.61529 20180 ft 440 kts 33°
2026-05-07 17:38 41.85885 12.63884 20659 ft 442 kts 33°
2026-05-07 17:38 41.88416 12.66257 21126 ft 445 kts 33°
2026-05-07 17:38 41.90957 12.68642 21584 ft 448 kts 33°
2026-05-07 17:39 41.93521 12.71052 22030 ft 450 kts 33°
2026-05-07 17:39 41.96097 12.73480 22449 ft 453 kts 33°
2026-05-07 17:39 41.98657 12.75893 22861 ft 455 kts 32°
2026-05-07 17:39 42.01226 12.78412 23296 ft 459 kts 37°
2026-05-07 17:40 42.03539 12.81406 23682 ft 464 kts 47°
2026-05-07 17:40 42.05500 12.84882 24016 ft 469 kts 57°
2026-05-07 17:40 42.07138 12.88696 24331 ft 473 kts 59°
2026-05-07 17:40 42.08760 12.92576 24653 ft 476 kts 60°
2026-05-07 17:41 42.10389 12.96470 24995 ft 479 kts 60°
2026-05-07 17:41 42.12015 13.00405 25314 ft 482 kts 60°
2026-05-07 17:41 42.13606 13.04396 25630 ft 485 kts 61°
2026-05-07 17:41 42.15176 13.08437 25945 ft 489 kts 62°
2026-05-07 17:42 42.16738 13.12512 26242 ft 492 kts 62°
2026-05-07 17:42 42.18308 13.16623 26532 ft 495 kts 62°
2026-05-07 17:42 42.19877 13.20707 26799 ft 498 kts 62°
2026-05-07 17:42 42.21483 13.24858 27087 ft 500 kts 62°
2026-05-07 17:43 42.23126 13.29084 27397 ft 504 kts 62°
2026-05-07 17:43 42.24739 13.33227 27633 ft 507 kts 62°
2026-05-07 17:43 42.26380 13.37445 27954 ft 509 kts 61°
2026-05-07 17:43 42.28028 13.41694 28261 ft 512 kts 61°
2026-05-07 17:44 42.29684 13.45978 28537 ft 516 kts 62°
2026-05-07 17:44 42.31343 13.50288 28819 ft 519 kts 62°
2026-05-07 17:44 42.33003 13.54620 29198 ft 519 kts 62°
2026-05-07 17:44 42.34527 13.59039 29587 ft 520 kts 69°
2026-05-07 17:45 42.35624 13.63701 29970 ft 520 kts 77°
2026-05-07 17:45 42.36451 13.68468 30283 ft 521 kts 77°
2026-05-07 17:45 42.37276 13.73241 30593 ft 522 kts 78°
2026-05-07 17:45 42.38104 13.78021 30908 ft 522 kts 77°
2026-05-07 17:46 42.38934 13.82805 31262 ft 522 kts 77°
2026-05-07 17:46 42.39764 13.87585 31598 ft 521 kts 78°
2026-05-07 17:46 42.40580 13.92306 31893 ft 522 kts 78°
2026-05-07 17:46 42.41403 13.97093 32231 ft 522 kts 78°
2026-05-07 17:47 42.42223 14.01868 32553 ft 521 kts 78°
2026-05-07 17:47 42.43041 14.06655 32875 ft 521 kts 78°
2026-05-07 17:47 42.43855 14.11429 33173 ft 521 kts 78°
2026-05-07 17:47 42.44667 14.16212 33499 ft 521 kts 78°
2026-05-07 17:48 42.45476 14.20989 33820 ft 520 kts 78°
2026-05-07 17:48 42.46283 14.25759 34120 ft 520 kts 78°
2026-05-07 17:48 42.47091 14.30529 34382 ft 520 kts 78°
2026-05-07 17:48 42.47899 14.35313 34635 ft 520 kts 78°
2026-05-07 17:49 42.48702 14.40095 34879 ft 520 kts 78°
2026-05-07 17:49 42.49500 14.44873 35120 ft 521 kts 78°
2026-05-07 17:49 42.50297 14.49670 35362 ft 521 kts 78°
2026-05-07 17:49 42.51090 14.54453 35608 ft 521 kts 78°
2026-05-07 17:50 42.51887 14.59251 35846 ft 522 kts 78°
2026-05-07 17:50 42.52683 14.64060 35980 ft 523 kts 78°
2026-05-07 17:50 42.54273 14.73688 36009 ft 523 kts 78°
2026-05-07 17:51 42.55850 14.83322 36002 ft 523 kts 78°
2026-05-07 17:51 42.57416 14.92972 36007 ft 524 kts 78°
2026-05-07 17:52 42.58981 15.02652 36010 ft 527 kts 78°
2026-05-07 17:52 42.60545 15.12371 36010 ft 527 kts 78°
2026-05-07 17:53 42.62110 15.22104 36003 ft 527 kts 78°
2026-05-07 17:53 42.63664 15.31839 36021 ft 528 kts 78°
2026-05-07 17:54 42.65189 15.41530 36028 ft 528 kts 78°
2026-05-07 17:54 42.66722 15.51282 36029 ft 528 kts 78°
2026-05-07 17:55 42.68257 15.61049 36031 ft 528 kts 78°
2026-05-07 17:55 42.69726 15.70823 36032 ft 528 kts 83°
2026-05-07 17:56 42.69841 15.80743 36033 ft 523 kts 100°
2026-05-07 17:56 42.68913 15.90548 36033 ft 522 kts 100°
2026-05-07 17:57 42.68162 15.98686 36030 ft 523 kts 100°
2026-05-07 17:57 42.67094 16.10151 36034 ft 523 kts 100°
2026-05-07 17:58 42.66164 16.19954 36035 ft 523 kts 100°
2026-05-07 17:58 42.65214 16.29767 36036 ft 524 kts 100°
2026-05-07 17:59 42.64261 16.39517 36037 ft 524 kts 100°
2026-05-07 17:59 42.63296 16.49328 36040 ft 524 kts 100°
2026-05-07 18:00 42.62322 16.59157 36043 ft 525 kts 100°
2026-05-07 18:00 42.61343 16.68980 36047 ft 525 kts 100°
2026-05-07 18:01 42.60356 16.78811 36038 ft 526 kts 100°
2026-05-07 18:01 42.59354 16.88645 36038 ft 526 kts 101°
2026-05-07 18:02 42.57827 17.03416 36051 ft 527 kts 101°
2026-05-07 18:03 42.56808 17.13203 36050 ft 528 kts 100°
2026-05-07 18:03 42.55776 17.23062 36054 ft 529 kts 100°
2026-05-07 18:04 42.54738 17.32942 36055 ft 529 kts 100°
2026-05-07 18:04 42.53688 17.42826 36050 ft 530 kts 100°
2026-05-07 18:05 42.52626 17.52714 36049 ft 530 kts 100°
2026-05-07 18:05 42.51552 17.62609 36046 ft 531 kts 100°
2026-05-07 18:06 42.50462 17.72521 36048 ft 532 kts 100°
2026-05-07 18:06 42.49366 17.82447 36056 ft 533 kts 100°
2026-05-07 18:07 42.48265 17.92374 36063 ft 533 kts 100°
2026-05-07 18:07 42.47159 18.02304 36067 ft 533 kts 100°
2026-05-07 18:08 42.46040 18.12237 36072 ft 534 kts 100°
2026-05-07 18:08 42.44908 18.22182 36084 ft 534 kts 100°
2026-05-07 18:09 42.43776 18.32057 36095 ft 535 kts 100°
2026-05-07 18:09 42.43202 18.37022 35824 ft 533 kts 100°
2026-05-07 18:09 42.42626 18.41979 35291 ft 531 kts 100°
2026-05-07 18:09 42.41832 18.46838 34774 ft 527 kts 109°
2026-05-07 18:10 42.40578 18.51470 34264 ft 522 kts 118°
2026-05-07 18:10 42.38907 18.55795 33687 ft 516 kts 126°
2026-05-07 18:10 42.37597 18.58458 33291 ft 512 kts 131°
2026-05-07 18:10 42.35348 18.62142 32667 ft 504 kts 139°
2026-05-07 18:11 42.32832 18.65390 32049 ft 499 kts 143°
2026-05-07 18:11 42.30248 18.68508 31425 ft 497 kts 143°
2026-05-07 18:11 42.27671 18.71610 30812 ft 495 kts 143°
2026-05-07 18:11 42.25105 18.74697 30210 ft 493 kts 142°
2026-05-07 18:12 42.22548 18.77772 29493 ft 491 kts 142°
2026-05-07 18:12 42.19999 18.80832 28826 ft 488 kts 142°
2026-05-07 18:12 42.17476 18.83860 28281 ft 483 kts 142°
2026-05-07 18:12 42.15014 18.86818 27724 ft 478 kts 142°
2026-05-07 18:13 42.12548 18.89782 27164 ft 473 kts 142°
2026-05-07 18:13 42.10106 18.92708 26597 ft 468 kts 142°
2026-05-07 18:13 42.07684 18.95605 26050 ft 463 kts 142°
2026-05-07 18:13 42.05284 18.98469 25509 ft 458 kts 142°
2026-05-07 18:14 42.02914 19.01294 24982 ft 454 kts 142°
2026-05-07 18:14 42.00560 19.04098 24459 ft 449 kts 142°
2026-05-07 18:14 41.98229 19.06873 23950 ft 445 kts 142°
2026-05-07 18:14 41.95922 19.09617 23398 ft 440 kts 142°
2026-05-07 18:15 41.93639 19.12331 22800 ft 436 kts 142°
2026-05-07 18:15 41.91379 19.15012 22223 ft 432 kts 142°
2026-05-07 18:15 41.89137 19.17665 21657 ft 428 kts 142°
2026-05-07 18:15 41.86937 19.20265 21126 ft 424 kts 142°
2026-05-07 18:16 41.84735 19.22868 20609 ft 421 kts 142°
2026-05-07 18:16 41.82548 19.25456 20113 ft 417 kts 142°
2026-05-07 18:16 41.80381 19.28020 19630 ft 414 kts 142°
2026-05-07 18:16 41.78230 19.30569 19172 ft 411 kts 140°
2026-05-07 18:17 41.76282 19.33371 18712 ft 411 kts 133°
2026-05-07 18:17 41.74453 19.36301 18217 ft 408 kts 133°
2026-05-07 18:17 41.72641 19.39203 17696 ft 405 kts 133°
2026-05-07 18:17 41.70839 19.42082 17183 ft 401 kts 133°
2026-05-07 18:18 41.69057 19.44924 16675 ft 397 kts 133°
2026-05-07 18:18 41.67288 19.47743 16168 ft 394 kts 133°
2026-05-07 18:18 41.65410 19.50362 15662 ft 386 kts 143°
2026-05-07 18:18 41.63217 19.52345 15158 ft 378 kts 156°
2026-05-07 18:19 41.60830 19.53609 14655 ft 370 kts 168°
2026-05-07 18:19 41.58323 19.54181 14148 ft 363 kts 178°
2026-05-07 18:19 41.55810 19.54503 13603 ft 361 kts 177°
2026-05-07 18:19 41.53326 19.54836 13055 ft 358 kts 177°
2026-05-07 18:20 41.50887 19.55173 12727 ft 339 kts 176°
2026-05-07 18:20 41.48649 19.55494 12559 ft 309 kts 177°
2026-05-07 18:20 41.46575 19.55792 12137 ft 293 kts 177°
2026-05-07 18:20 41.44575 19.56069 11478 ft 286 kts 177°
2026-05-07 18:21 41.42610 19.56335 10803 ft 282 kts 177°
2026-05-07 18:21 41.40667 19.56594 10116 ft 278 kts 177°
2026-05-07 18:21 41.38753 19.56850 9412 ft 277 kts 176°
2026-05-07 18:21 41.36834 19.57106 9046 ft 275 kts 176°
2026-05-07 18:22 41.34941 19.57361 8780 ft 271 kts 176°
2026-05-07 18:22 41.33696 19.57529 8707 ft 272 kts 176°
2026-05-07 18:22 41.31170 19.57869 8540 ft 273 kts 176°
2026-05-07 18:22 41.29286 19.58123 8321 ft 272 kts 176°
2026-05-07 18:23 41.27411 19.58376 8015 ft 269 kts 175°
2026-05-07 18:23 41.25556 19.58629 7691 ft 267 kts 175°
2026-05-07 18:23 41.23710 19.58879 7371 ft 266 kts 175°
2026-05-07 18:23 41.21876 19.59125 7046 ft 264 kts 175°
2026-05-07 18:24 41.20098 19.59530 6722 ft 263 kts 160°
2026-05-07 18:24 41.18584 19.60863 6406 ft 265 kts 134°
2026-05-07 18:24 41.17702 19.63004 6036 ft 269 kts 106°
2026-05-07 18:24 41.17638 19.65498 5668 ft 274 kts 86°
2026-05-07 18:25 41.17834 19.68012 5298 ft 274 kts 86°
2026-05-07 18:25 41.18033 19.70521 4905 ft 269 kts 85°
2026-05-07 18:25 41.18569 19.72812 4550 ft 256 kts 57°
2026-05-07 18:25 41.19848 19.74326 4234 ft 245 kts 25°
2026-05-07 18:26 41.21494 19.74713 3906 ft 242 kts 354°
2026-05-07 18:26 41.23141 19.74394 3581 ft 238 kts 353°
2026-05-07 18:26 41.24768 19.74159 3273 ft 232 kts 355°
2026-05-07 18:26 41.26359 19.73968 2971 ft 225 kts 355°
2026-05-07 18:27 41.27875 19.73789 2759 ft 212 kts 355°
2026-05-07 18:27 41.29300 19.73618 2493 ft 198 kts 355°
2026-05-07 18:27 41.30613 19.73456 2253 ft 181 kts 355°
2026-05-07 18:27 41.31818 19.73304 2045 ft 168 kts 355°
2026-05-07 18:28 41.32953 19.73160 1811 ft 161 kts 354°
2026-05-07 18:28 41.34060 19.73017 1553 ft 158 kts 354°
2026-05-07 18:28 41.35171 19.72874 1390 ft 172 kts 354°
2026-05-07 18:28 41.36413 19.72716 2089 ft 188 kts 354°
2026-05-07 18:29 41.37773 19.72537 2718 ft 210 kts 355°
2026-05-07 18:29 41.39373 19.72326 2954 ft 257 kts 355°
2026-05-07 18:29 41.41256 19.72075 2998 ft 272 kts 354°